Flag for U.S.A. Weather past 2 weeks in San Diego, California, U.S.A.

Now
61 °F

Partly cloudy.


Feels Like: 61 °F
Forecast: 61 / 66 °F
Wind: 9 mph from West

Location: San Diego - North Island

Current Time: May 22, 2015 at 3:43:18 AM

Latest Report: May 22, 2015 at 2:52 AM


Visibility: 10 mi

Pressure: 29.99 "Hg

Humidity: 67%

Dew point: 50 °F

Location of San DiegoLocation

Historic Weather in San Diego — Graph

°F

San Diego temperature yesterday

Maximum temperature yesterday: 65 °F (at 1:52 PM)
Minimum temperature yesterday: 60 °F (at 3:52 AM)
Average temperature yesterday: 62 °F

Past Weeks' High & Low Weather Summary

 TemperatureHumidityPressure
High67 °F (May 11, 12:52 PM)93% (May 11, 3:52 AM)30.08 "Hg (May 11, 3:52 AM)
Low54 °F (May 8, 3:52 AM)30% (May 8, 4:52 PM)29.82 "Hg (May 11, 6:52 PM)
Average61 °F73%29.96 "Hg
* Reported May 7 1:52 AM — May 22 1:52 AM, San Diego, Weather by CustomWeather, © 2015

Note: Actual official high and low records may vary slightly from our data, if they occured in-between our weather recording intervals... More about our weather records

Advertising

San Diego weather history for previous 24 hours

 ConditionsComfort  
Time TempWeatherWind HumidityBarometerVisibility
1:52 AM
Fri, May 22
61 °FPartly cloudy.13 mph70%30.00 "Hg10 mi
12:52 AM61 °FPartly cloudy.10 mph67%30.01 "Hg10 mi
11:52 PM
Thu, May 21
61 °FPartly cloudy.13 mph70%30.00 "Hg10 mi
10:52 PM61 °FPassing clouds.13 mph67%30.01 "Hg10 mi
9:52 PM61 °FPartly cloudy.12 mph72%30.01 "Hg10 mi
8:52 PM61 °FPassing clouds.9 mph72%29.99 "Hg10 mi
7:52 PM62 °FBroken clouds.10 mph73%29.98 "Hg10 mi
6:52 PM62 °FBroken clouds.9 mph67%29.97 "Hg10 mi
5:52 PM63 °FPartly sunny.9 mph65%29.96 "Hg10 mi
4:52 PM65 °FPartly sunny.9 mph61%29.96 "Hg10 mi
3:52 PM64 °FBroken clouds.13 mph65%29.96 "Hg10 mi
2:52 PMN/ABroken clouds.13 mphN/A29.98 "Hg10 mi
1:52 PM65 °FBroken clouds.12 mph61%29.98 "Hg10 mi
12:52 PM64 °FPartly sunny.12 mph63%29.99 "Hg10 mi
11:52 AM63 °FBroken clouds.9 mph65%29.99 "Hg10 mi
9:52 AM62 °FPartly sunny.9 mph65%29.98 "Hg10 mi
8:52 AM61 °FBroken clouds.8 mph67%29.97 "Hg10 mi
7:52 AM61 °FBroken clouds.9 mph67%29.96 "Hg10 mi
6:52 AM60 °FBroken clouds.6 mph69%29.96 "Hg10 mi
5:52 AM60 °FPartly cloudy.8 mph69%29.95 "Hg10 mi
4:52 AM60 °FPartly cloudy.6 mph72%29.94 "Hg10 mi
3:52 AM60 °FPartly cloudy.7 mph69%29.95 "Hg10 mi
Weather by CustomWeather, © 2015

See weather overviewHow to use our weather pages